| time (UTC) | temp F | wind direction | speed MPH | gust MPH | rain 1hr in | rain 24hr in | rain mn in | humidity % | barometer mb |
| 20260504050333 | 44 | 173 | 0.0 | 0.0 | 0.00 | 0.00 | 0.00 | 62 | 786.4 |
| 20260504043326 | 44 | 173 | 0.0 | 0.0 | 0.00 | 0.00 | 0.00 | 62 | 786.5 |
| 20260504040402 | 44 | 173 | 0.0 | 0.0 | 0.00 | 0.00 | 0.00 | 62 | 786.5 |
| 20260504033324 | 44 | 142 | 0.0 | 0.0 | 0.00 | 0.00 | 0.00 | 62 | 786.5 |
| 20260504030339 | 44 | 142 | 0.0 | 0.0 | 0.00 | 0.00 | 0.00 | 59 | 786.5 |
| 20260504023335 | 46 | 142 | 0.0 | 0.0 | 0.00 | 0.00 | 0.00 | 54 | 786.6 |
| 20260504020347 | 48 | 142 | 0.0 | 0.0 | 0.00 | 0.00 | 0.00 | 49 | 786.6 |
| 20260504013324 | 49 | 162 | 0.0 | 0.0 | 0.00 | 0.00 | 0.00 | 46 | 786.6 |
| 20260504010333 | 51 | 236 | 0.0 | 0.0 | 0.00 | 0.00 | 0.00 | 45 | 786.6 |
| 20260504003332 | 52 | 219 | 0.0 | 0.0 | 0.00 | 0.00 | 0.00 | 41 | 786.6 |
| 20260504000337 | 52 | 161 | 0.0 | 0.0 | 0.00 | 0.00 | 0.00 | 39 | 786.5 |
| 20260503233324 | 53 | 161 | 0.0 | 0.0 | 0.00 | 0.00 | 0.00 | 36 | 786.5 |
| 20260503230355 | 54 | 218 | 0.0 | 0.0 | 0.00 | 0.00 | 0.00 | 34 | 786.5 |
| 20260503223334 | 55 | 196 | 0.0 | 0.0 | 0.00 | 0.00 | 0.00 | 32 | 786.5 |
| 20260503220343 | 55 | 273 | 0.0 | 0.0 | 0.00 | 0.00 | 0.00 | 31 | 786.5 |
| 20260503213326 | 54 | 269 | 0.0 | 0.0 | 0.00 | 0.00 | 0.00 | 34 | 786.6 |
| 20260503210344 | 56 | 266 | 0.0 | 0.0 | 0.00 | 0.00 | 0.00 | 33 | 786.5 |
| 20260503203336 | 53 | 242 | 0.0 | 0.0 | 0.00 | 0.00 | 0.00 | 37 | 786.6 |
| 20260503200327 | 54 | 221 | 0.0 | 0.0 | 0.00 | 0.00 | 0.00 | 37 | 786.7 |
| 20260503193335 | 54 | 196 | 0.0 | 0.0 | 0.00 | 0.00 | 0.00 | 38 | 786.7 |
| 20260503190328 | 54 | 305 | 0.0 | 0.0 | 0.00 | 0.00 | 0.00 | 39 | 786.8 |
| 20260503183327 | 52 | 285 | 0.0 | 0.0 | 0.00 | 0.00 | 0.00 | 39 | 786.9 |
| 20260503180349 | 52 | 214 | 0.0 | 0.0 | 0.00 | 0.00 | 0.00 | 40 | 786.9 |
| 20260503173320 | 51 | 209 | 0.0 | 0.0 | 0.00 | 0.00 | 0.00 | 45 | 787.1 |
| 20260503170336 | 49 | 260 | 0.0 | 0.0 | 0.00 | 0.00 | 0.00 | 50 | 787.1 |
| 20260503150336 | 48 | 209 | 0.0 | 0.0 | 0.00 | 0.00 | 0.00 | 53 | 787.5 |
| 20260503130336 | 43 | 232 | 0.0 | 0.0 | 0.00 | 0.00 | 0.00 | 66 | 787.7 |
| 20260503110326 | 37 | 286 | 0.0 | 0.0 | 0.00 | 0.00 | 0.00 | 87 | 787.6 |
| 20260503090356 | 36 | 286 | 0.0 | 0.0 | 0.00 | 0.00 | 0.00 | 89 | 787.7 |
| 20260503080330 | 35 | 286 | 0.0 | 0.0 | 0.00 | 0.00 | 0.00 | 90 | 787.7 |
| 20260503070358 | 35 | 286 | 0.0 | 0.0 | 0.00 | 0.00 | 0.00 | 88 | 787.7 |